User: anonymous   Login
Location: S�tio Afonso Gruber
(26.1760°S, 49.5250°W)
Time: 12:11:27
(UTC+00:00)
Language:

AO-7 - Orbit

View from above orbital plane
View from above orbital plane
View from above satellite
View from above satellite

Ground track
Ground track

The orbit data is extracted from the following two-line orbital elements,

1 07530U 74089B   21125.94389222 -.00000025  00000-0  12856-3 0  9996
2 07530 101.8511 100.4969 0012599 103.1613 262.4540 12.53648607126402
Epoch (UTC): 05 May 2021 22:39:12
Eccentricity: 0.0012599
inclination: 101.8511°
perigee height: 1439 km
apogee height: 1459 km
right ascension of ascending node: 100.4969°
argument of perigee: 103.1613°
revolutions per day: 12.53648607
mean anomaly at epoch: 262.4540°
orbit number at epoch: 12640

The dashed part of the orbit path shows where the satellite is in the earth's shadow,  

DLR